This demonstration page uses our WeatherBlox Daily Observations layout. Learn more.

Left ArrowRight Arrow

Hourly Observations for December 17, 2016

Temp ( °F °C ) Dew Point ( °F °C ) Humidity (%) Winds ( mph kmh ) Pressure ( in mb ) Visibility ( mi km ) Precip ( " mm )
12:51 am 00:51 Cloudy 61 16.1 39 3.9 44 44 WSW 10 17 29.59 1002 10 16 0.00 0.00
1:51 am 01:51 Cloudy 62 16.7 39 3.9 43 43 WSW 17 28 29.55 1001 10 16 0.00 0.00
2:51 am 02:51 Partly Cloudy 60 15.6 40 4.4 47 47 SW 15 24 29.52 1000 10 16 0.00 0.00
3:51 am 03:51 Cloudy 62 16.7 41 5 46 46 WSW 20 31 29.49 999 10 16 0.00 0.00
4:51 am 04:51 Cloudy with Light Rain 53 11.7 50 10 89 89 NW 16 26 29.50 999 9 14 0.00 0.03
5:15 am 05:15 Mostly Clear with Rain 49 9.4 44 6.7 83 83 WNW 33 54 29.65 1004 3 4 0.09 2.29
5:23 am 05:23 Mostly Clear with Light Rain 47 8.3 43 6.1 86 86 WNW 33 54 29.68 1005 5 8 0.11 2.79
5:51 am 05:51 Cloudy with Light Rain 45 7.2 40 4.4 83 83 WNW 30 48 29.64 1004 10 16 0.11 2.79
6:51 am 06:51 Cloudy with Light Rain 43 6.1 37 2.8 80 80 WNW 30 48 29.71 1006 10 16 0.01 0.25
7:51 am 07:51 Sunny 43 6.1 35 1.7 74 74 WNW 31 50 29.75 1008 10 16 0.02 0.51
8:51 am 08:51 Sunny 45 7.2 30 -1.1 56 56 WNW 28 44 29.80 1009 10 16 0.00 0.00
9:51 am 09:51 Sunny 46 7.8 28 -2.2 50 50 WNW 23 37 29.87 1012 10 16 0.00 0.00
10:51 am 10:51 Sunny 48 8.9 26 -3.3 42 42 WNW 23 37 29.91 1013 10 16 0.00 0.00
11:51 am 11:51 Sunny 49 9.4 27 -2.8 43 43 WNW 22 35 29.90 1012 10 16 0.00 0.00
12:51 pm 12:51 Sunny 50 10 26 -3.3 39 39 WNW 24 39 29.88 1012 10 16 0.00 0.00
1:51 pm 13:51 Sunny 51 10.6 25 -3.9 36 36 NW 21 33 29.89 1012 10 16 0.00 0.00
2:51 pm 14:51 Sunny 51 10.6 25 -3.9 36 36 NW 16 26 29.90 1013 10 16 0.00 0.00
3:51 pm 15:51 Sunny 51 10.6 21 -6.1 31 31 NW 15 24 29.92 1013 10 16 0.00 0.00
4:51 pm 16:51 Sunny 49 9.4 21 -6.1 33 33 WNW 14 22 29.98 1015 10 16 0.00 0.00
5:51 pm 17:51 Clear 45 7.2 24 -4.4 44 44 NNW 9 15 30.03 1017 10 16 0.00 0.00
6:51 pm 18:51 Clear 41 5 27 -2.8 57 57 NNW 7 11 30.06 1018 10 16 0.00 0.00
7:51 pm 19:51 Clear 38 3.3 28 -2.2 68 68 NNW 9 15 30.09 1019 10 16 0.00 0.03
8:51 pm 20:51 Clear 38 3.3 27 -2.8 65 65 W 6 9 30.10 1019 10 16 0.00 0.00
9:51 pm 21:51 Clear 33 0.6 28 -2.2 82 82 NNE 5 7 30.13 1020 10 16 0.00 0.00
10:51 pm 22:51 Clear with Light Wintry Mix 31 -0.6 27 -2.8 85 85 E 3 6 30.13 1020 10 16 0.00 0.03
11:51 pm 23:51 Clear 30 -1.1 27 -2.8 88 88 E 3 6 30.12 1020 10 16 0.00 0.03

Powered by AerisWeather